SIA33B KSFO-WSSS

Flight info

Callsign SIA33B
Flight time N/A
Altitude 34000
Route GNNRR3 GNNRR DCT ALCOA DCT 39N140W 40N150W/N0496F360 40N160W 35N170W 31N180E/N0487F380 28N170E 25N160E 21N150E/N0487F400 17N140E DCT ENDAX P515 TOKON M767 TODAM/N0481F430 M767 TOMAN KARTO2B
Aircraft A359/H-SDE2E3GHIJ3J4J5LM1ORWXY/LB1D1

Departure

Time N/A
Airport San Francisco International Airport (KSFO)

Arrival

Time 2026-05-07 02:26
Airport Singapore Changi Airport (WSSS)
Time Latitude Longitude Altitude Speed Heading
2026-05-07 01:49 2.04809 106.68153 39882 ft 496 kts 231°
2026-05-07 01:49 2.02714 106.65420 39881 ft 496 kts 231°
2026-05-07 01:50 1.98515 106.59942 39886 ft 496 kts 231°
2026-05-07 01:50 1.94347 106.54504 39884 ft 496 kts 231°
2026-05-07 01:51 1.90145 106.49022 39882 ft 496 kts 231°
2026-05-07 01:51 1.85953 106.43554 39881 ft 496 kts 231°
2026-05-07 01:52 1.81755 106.38079 39880 ft 496 kts 231°
2026-05-07 01:52 1.77556 106.32603 39885 ft 497 kts 231°
2026-05-07 01:53 1.73343 106.27110 39883 ft 498 kts 231°
2026-05-07 01:53 1.69134 106.21622 39879 ft 498 kts 231°
2026-05-07 01:54 1.64920 106.16132 39882 ft 498 kts 231°
2026-05-07 01:54 1.60708 106.10639 39882 ft 498 kts 231°
2026-05-07 01:55 1.56501 106.05149 39883 ft 498 kts 231°
2026-05-07 01:55 1.54401 106.02410 39727 ft 495 kts 231°
2026-05-07 01:55 1.52306 105.99678 39024 ft 497 kts 231°
2026-05-07 01:55 1.50190 105.96918 38166 ft 501 kts 231°
2026-05-07 01:56 1.48096 105.94190 37402 ft 501 kts 231°
2026-05-07 01:56 1.45976 105.91427 36696 ft 501 kts 231°
2026-05-07 01:56 1.43860 105.88668 35990 ft 501 kts 231°
2026-05-07 01:56 1.41737 105.85900 35259 ft 501 kts 231°
2026-05-07 01:57 1.39613 105.83132 34503 ft 502 kts 232°
2026-05-07 01:57 1.37487 105.80360 33625 ft 505 kts 232°
2026-05-07 01:57 1.35340 105.77565 32676 ft 507 kts 231°
2026-05-07 01:57 1.33189 105.74760 31752 ft 510 kts 232°
2026-05-07 01:58 1.31038 105.71944 30813 ft 512 kts 232°
2026-05-07 01:58 1.28870 105.69108 29818 ft 516 kts 231°
2026-05-07 01:58 1.26685 105.66251 28890 ft 515 kts 231°
2026-05-07 01:58 1.24516 105.63415 28133 ft 511 kts 231°
2026-05-07 01:59 1.22365 105.60604 27397 ft 507 kts 231°
2026-05-07 01:59 1.20406 105.57693 26673 ft 504 kts 241°
2026-05-07 01:59 1.19162 105.54434 25946 ft 502 kts 256°
2026-05-07 01:59 1.18745 105.50980 25221 ft 499 kts 268°
2026-05-07 02:00 1.18674 105.47526 24501 ft 496 kts 269°
2026-05-07 02:00 1.18628 105.44082 23781 ft 493 kts 269°
2026-05-07 02:00 1.18568 105.40666 23005 ft 491 kts 269°
2026-05-07 02:00 1.18497 105.37268 22237 ft 486 kts 269°
2026-05-07 02:01 1.18420 105.33917 21530 ft 480 kts 269°
2026-05-07 02:01 1.18341 105.30632 21299 ft 464 kts 269°
2026-05-07 02:01 1.18263 105.27474 21155 ft 446 kts 269°
2026-05-07 02:01 1.18188 105.24475 21038 ft 429 kts 269°
2026-05-07 02:02 1.18114 105.21546 20870 ft 415 kts 269°
2026-05-07 02:02 1.18041 105.18708 20696 ft 402 kts 269°
2026-05-07 02:02 1.17971 105.15963 20510 ft 389 kts 269°
2026-05-07 02:02 1.17903 105.13302 20350 ft 377 kts 269°
2026-05-07 02:03 1.17837 105.10715 20066 ft 369 kts 269°
2026-05-07 02:03 1.17773 105.08158 19649 ft 367 kts 269°
2026-05-07 02:03 1.17721 105.05617 19199 ft 365 kts 269°
2026-05-07 02:03 1.17670 105.03091 18807 ft 362 kts 269°
2026-05-07 02:04 1.17619 105.00585 18404 ft 360 kts 269°
2026-05-07 02:04 1.17567 104.98095 17976 ft 357 kts 269°
2026-05-07 02:04 1.17515 104.95622 17546 ft 354 kts 269°
2026-05-07 02:04 1.17463 104.93182 17185 ft 348 kts 269°
2026-05-07 02:05 1.17430 104.91596 17090 ft 340 kts 269°
2026-05-07 02:05 1.17363 104.88504 16909 ft 324 kts 269°
2026-05-07 02:05 1.17332 104.87032 16823 ft 317 kts 269°
2026-05-07 02:05 1.17270 104.84133 16491 ft 308 kts 269°
2026-05-07 02:06 1.17240 104.82711 16230 ft 308 kts 269°
2026-05-07 02:06 1.17195 104.80581 15884 ft 305 kts 269°
2026-05-07 02:06 1.17130 104.77804 15548 ft 300 kts 269°
2026-05-07 02:06 1.17083 104.75727 15307 ft 298 kts 269°
2026-05-07 02:07 1.17051 104.74328 15141 ft 297 kts 269°
2026-05-07 02:07 1.16958 104.70212 14667 ft 295 kts 269°
2026-05-07 02:07 1.16911 104.68192 14422 ft 294 kts 269°
2026-05-07 02:08 1.16865 104.66157 14180 ft 293 kts 269°
2026-05-07 02:08 1.16818 104.64096 13923 ft 292 kts 269°
2026-05-07 02:08 1.16772 104.62105 13697 ft 291 kts 269°
2026-05-07 02:08 1.16726 104.60086 13434 ft 290 kts 269°
2026-05-07 02:09 1.16680 104.58082 13198 ft 288 kts 269°
2026-05-07 02:09 1.16634 104.56080 12957 ft 287 kts 269°
2026-05-07 02:09 1.16588 104.54094 12721 ft 286 kts 269°
2026-05-07 02:09 1.16543 104.52113 12553 ft 284 kts 269°
2026-05-07 02:10 1.16497 104.50143 12372 ft 284 kts 269°
2026-05-07 02:10 1.16452 104.48181 12152 ft 282 kts 268°
2026-05-07 02:10 1.16465 104.46232 11909 ft 280 kts 276°
2026-05-07 02:10 1.17057 104.44397 11698 ft 278 kts 301°
2026-05-07 02:11 1.18092 104.42779 11452 ft 276 kts 306°
2026-05-07 02:11 1.19188 104.41201 11224 ft 276 kts 306°
2026-05-07 02:11 1.20280 104.39628 11011 ft 275 kts 305°
2026-05-07 02:11 1.21361 104.38057 10775 ft 274 kts 305°
2026-05-07 02:12 1.22434 104.36490 10553 ft 273 kts 305°
2026-05-07 02:12 1.23502 104.34926 10329 ft 272 kts 304°
2026-05-07 02:12 1.24563 104.33368 10112 ft 271 kts 304°
2026-05-07 02:12 1.25618 104.31816 9883 ft 270 kts 304°
2026-05-07 02:13 1.26669 104.30271 9658 ft 268 kts 304°
2026-05-07 02:13 1.27717 104.28731 9434 ft 267 kts 304°
2026-05-07 02:13 1.28761 104.27194 9202 ft 266 kts 304°
2026-05-07 02:13 1.29786 104.25687 8984 ft 265 kts 304°
2026-05-07 02:14 1.30832 104.24147 8768 ft 264 kts 304°
2026-05-07 02:14 1.31875 104.22635 8543 ft 262 kts 306°
2026-05-07 02:14 1.33182 104.21420 8332 ft 261 kts 332°
2026-05-07 02:14 1.34887 104.20842 8105 ft 259 kts 348°
2026-05-07 02:15 1.36669 104.20471 7875 ft 259 kts 349°
2026-05-07 02:15 1.38416 104.20115 7648 ft 258 kts 349°
2026-05-07 02:15 1.40170 104.19750 7399 ft 258 kts 348°
2026-05-07 02:15 1.41925 104.19381 7155 ft 257 kts 348°
2026-05-07 02:16 1.43666 104.19011 6930 ft 256 kts 348°
2026-05-07 02:16 1.45406 104.18639 6694 ft 255 kts 348°
2026-05-07 02:16 1.47145 104.18268 6454 ft 254 kts 348°
2026-05-07 02:16 1.48842 104.17904 6327 ft 245 kts 348°
2026-05-07 02:17 1.50469 104.17556 6194 ft 234 kts 348°
2026-05-07 02:17 1.52023 104.17177 6018 ft 225 kts 340°
2026-05-07 02:17 1.53318 104.16374 5794 ft 215 kts 321°
2026-05-07 02:17 1.54461 104.15431 5553 ft 213 kts 319°
2026-05-07 02:18 1.55588 104.14487 5322 ft 209 kts 319°
2026-05-07 02:18 1.56711 104.13552 5104 ft 212 kts 319°
2026-05-07 02:18 1.57826 104.12630 4967 ft 208 kts 320°
2026-05-07 02:18 1.58953 104.11701 4875 ft 210 kts 320°
2026-05-07 02:19 1.59948 104.10685 4747 ft 205 kts 301°
2026-05-07 02:19 1.60149 104.09352 4708 ft 189 kts 253°
2026-05-07 02:19 1.59441 104.08356 4644 ft 172 kts 217°
2026-05-07 02:19 1.58385 104.07740 4440 ft 184 kts 203°
2026-05-07 02:20 1.57172 104.07215 4173 ft 195 kts 203°
2026-05-07 02:20 1.55924 104.06660 3866 ft 196 kts 202°
2026-05-07 02:20 1.54672 104.06130 3539 ft 196 kts 201°
2026-05-07 02:20 1.53417 104.05599 3250 ft 195 kts 202°
2026-05-07 02:21 1.52189 104.05076 2983 ft 188 kts 202°
2026-05-07 02:21 1.51029 104.04583 2741 ft 175 kts 202°
2026-05-07 02:21 1.49946 104.04123 2532 ft 164 kts 202°
2026-05-07 02:21 1.48915 104.03685 2330 ft 158 kts 206°
2026-05-07 02:22 1.47945 104.03263 2126 ft 150 kts 204°
2026-05-07 02:22 1.47412 104.03037 2018 ft 144 kts 203°
2026-05-07 02:22 1.46722 104.02749 1903 ft 141 kts 201°
2026-05-07 02:22 1.45809 104.02369 1720 ft 143 kts 201°
2026-05-07 02:23 1.44897 104.01981 1522 ft 139 kts 202°
2026-05-07 02:23 1.44032 104.01613 1354 ft 132 kts 202°
2026-05-07 02:23 1.43188 104.01255 1184 ft 131 kts 201°
2026-05-07 02:23 1.42350 104.00900 1011 ft 131 kts 202°
2026-05-07 02:24 1.41512 104.00544 850 ft 131 kts 201°
2026-05-07 02:24 1.40675 104.00190 691 ft 132 kts 202°
2026-05-07 02:24 1.39825 103.99828 539 ft 133 kts 201°
2026-05-07 02:24 1.38979 103.99473 374 ft 132 kts 200°
2026-05-07 02:25 1.38140 103.99112 180 ft 130 kts 201°
2026-05-07 02:25 1.37320 103.98765 54 ft 128 kts 202°
2026-05-07 02:25 1.36554 103.98444 37 ft 106 kts 203°
2026-05-07 02:25 1.35971 103.98196 34 ft 78 kts 202°
2026-05-07 02:26 1.35620 103.98112 37 ft 36 kts 176°
2026-05-07 02:26 1.35478 103.98129 35 ft 14 kts 172°
2026-05-07 02:26 1.35457 103.98132 34 ft 0 kts 173°
2026-05-07 02:27 1.35456 103.98132 34 ft 2 kts 173°
2026-05-07 02:27 1.35365 103.98144 33 ft 18 kts 166°
2026-05-07 02:28 1.35250 103.98181 32 ft 18 kts 189°
2026-05-07 02:28 1.35138 103.98154 32 ft 15 kts 180°
2026-05-07 02:28 1.35060 103.98186 31 ft 11 kts 146°
2026-05-07 02:28 1.35023 103.98214 31 ft 6 kts 146°
2026-05-07 02:29 1.35016 103.98219 31 ft 0 kts 148°